When you browse on this site, cookies collect data to enhance your experience and personalize the content and advertising you see.
Visit our Privacy Policy to learn more. By continuing to use the site, you agree to this use of cookies and data.
EN

Hourly Weather Lukaszow

Today, 27 September, Sunday

Time Temperature Precipitation Wind Pressure Humidity
00:00 +11°C° 1.9 mm 4 mps 732 mmHg 90%
01:00 +10°C° 0 mm 5 mps 732 mmHg 92%
02:00 +10°C° 2.4 mm 5 mps 732 mmHg 92%
03:00 +9°C° 2.4 mm 6 mps 732 mmHg 93%
04:00 +9°C° 2.4 mm 6 mps 732 mmHg 93%
05:00 +9°C° 1.6 mm 6 mps 732 mmHg 93%
06:00 +9°C° 1.6 mm 6 mps 733 mmHg 92%
07:00 +9°C° 1.6 mm 6 mps 733 mmHg 92%
08:00 +9°C° 1 mm 6 mps 734 mmHg 91%
09:00 +9°C° 1 mm 6 mps 735 mmHg 91%
10:00 +9°C° 1 mm 6 mps 735 mmHg 90%
11:00 +9°C° 0.2 mm 5 mps 736 mmHg 85%
12:00 +10°C° 0.2 mm 5 mps 737 mmHg 80%
13:00 +12°C° 0.2 mm 5 mps 738 mmHg 75%
14:00 +13°C° 0 mm 4 mps 739 mmHg 72%
15:00 +13°C° 0 mm 4 mps 740 mmHg 70%
16:00 +13°C° 0 mm 3 mps 740 mmHg 67%
17:00 +12°C° 0 mm 3 mps 741 mmHg 70%
18:00 +12°C° 0 mm 2 mps 741 mmHg 73%
19:00 +10°C° 0 mm 2 mps 742 mmHg 76%
20:00 +10°C° 0 mm 2 mps 742 mmHg 78%
21:00 +9°C° 0 mm 2 mps 743 mmHg 79%
22:00 +9°C° 0 mm 3 mps 744 mmHg 81%
23:00 +9°C° 0 mm 2 mps 744 mmHg 81%

Tomorrow, 28 September, Monday

Time Temperature Precipitation Wind Pressure Humidity
00:00 +9°C° 0 mm 2 mps 744 mmHg 82%
01:00 +8°C° 0 mm 2 mps 745 mmHg 82%
02:00 +8°C° 0 mm 2 mps 745 mmHg 81%
03:00 +8°C° 0 mm 2 mps 745 mmHg 81%
04:00 +8°C° 0 mm 2 mps 745 mmHg 80%
05:00 +8°C° 0 mm 2 mps 745 mmHg 79%
06:00 +9°C° 0 mm 2 mps 745 mmHg 78%
07:00 +9°C° 0 mm 2 mps 745 mmHg 77%
08:00 +11°C° 0 mm 3 mps 745 mmHg 71%
09:00 +13°C° 0 mm 3 mps 745 mmHg 65%
10:00 +16°C° 0 mm 3 mps 746 mmHg 59%
11:00 +17°C° 0 mm 4 mps 745 mmHg 57%
12:00 +18°C° 0 mm 4 mps 745 mmHg 54%
13:00 +17°C° 0 mm 5 mps 745 mmHg 51%
14:00 +18°C° 0 mm 4 mps 745 mmHg 54%
15:00 +17°C° 0 mm 4 mps 744 mmHg 57%
16:00 +17°C° 0 mm 4 mps 744 mmHg 60%
17:00 +16°C° 0 mm 3 mps 744 mmHg 65%
18:00 +13°C° 0 mm 3 mps 744 mmHg 69%
19:00 +12°C° 0 mm 3 mps 744 mmHg 74%
20:00 +12°C° 0 mm 3 mps 744 mmHg 76%
21:00 +12°C° 0 mm 3 mps 744 mmHg 77%
22:00 +13°C° 0 mm 3 mps 744 mmHg 79%
23:00 +12°C° 0 mm 3 mps 744 mmHg 82%

Day after tomorrow, 29 September, Tuesday

Time Temperature Precipitation Wind Pressure Humidity
00:00 +13°C° 0 mm 2 mps 744 mmHg 85%
01:00 +12°C° 0 mm 2 mps 744 mmHg 88%
02:00 +12°C° 0 mm 2 mps 743 mmHg 89%
03:00 +12°C° 0 mm 2 mps 743 mmHg 89%
04:00 +12°C° 0 mm 2 mps 743 mmHg 89%
05:00 +12°C° 0 mm 2 mps 743 mmHg 87%
06:00 +13°C° 0 mm 1 mps 743 mmHg 86%
07:00 +13°C° 0 mm 1 mps 744 mmHg 84%
08:00 +14°C° 0.1 mm 1 mps 744 mmHg 81%
09:00 +15°C° 0.1 mm 1 mps 744 mmHg 77%
10:00 +16°C° 0.1 mm 1 mps 744 mmHg 74%
11:00 +15°C° 1 mm 1 mps 744 mmHg 78%
12:00 +15°C° 1 mm 2 mps 744 mmHg 82%
13:00 +15°C° 1 mm 2 mps 744 mmHg 86%
14:00 +14°C° 0.6 mm 2 mps 744 mmHg 88%
15:00 +14°C° 0.6 mm 2 mps 744 mmHg 90%
16:00 +14°C° 0.6 mm 2 mps 744 mmHg 91%
17:00 +14°C° 0.2 mm 2 mps 744 mmHg 91%
18:00 +14°C° 0.2 mm 2 mps 744 mmHg 90%
19:00 +14°C° 0.2 mm 2 mps 744 mmHg 90%
20:00 +14°C° 0 mm 2 mps 744 mmHg 89%
21:00 +14°C° 0 mm 2 mps 744 mmHg 87%
22:00 +14°C° 0 mm 2 mps 744 mmHg 86%
23:00 +14°C° 0 mm 2 mps 744 mmHg 86%

30 September, Wednesday

Time Temperature Precipitation Wind Pressure Humidity
00:00 +14°C° 0 mm 2 mps 744 mmHg 86%
01:00 +14°C° 0 mm 2 mps 744 mmHg 86%
02:00 +13°C° 0 mm 2 mps 744 mmHg 86%
03:00 +12°C° 0 mm 3 mps 743 mmHg 87%
04:00 +11°C° 0 mm 3 mps 743 mmHg 88%
05:00 +11°C° 0 mm 3 mps 743 mmHg 87%
06:00 +12°C° 0 mm 3 mps 743 mmHg 87%
07:00 +12°C° 0 mm 4 mps 743 mmHg 86%
08:00 +13°C° 0 mm 4 mps 743 mmHg 81%
09:00 +14°C° 0 mm 4 mps 743 mmHg 76%
10:00 +16°C° 0 mm 5 mps 743 mmHg 72%
11:00 +17°C° 0 mm 5 mps 743 mmHg 68%
12:00 +19°C° 0 mm 5 mps 742 mmHg 65%
13:00 +19°C° 0 mm 6 mps 742 mmHg 62%
14:00 +19°C° 0 mm 5 mps 742 mmHg 65%
15:00 +19°C° 0 mm 5 mps 742 mmHg 67%
16:00 +17°C° 0 mm 5 mps 741 mmHg 70%
17:00 +18°C° 0.1 mm 4 mps 742 mmHg 73%
18:00 +17°C° 0.1 mm 4 mps 742 mmHg 77%
19:00 +15°C° 0.1 mm 4 mps 742 mmHg 81%
20:00 +16°C° 0 mm 3 mps 742 mmHg 81%
21:00 +14°C° 0 mm 3 mps 741 mmHg 82%
22:00 +15°C° 0 mm 2 mps 741 mmHg 82%
23:00 +14°C° 0 mm 2 mps 741 mmHg 83%

1 October, Thursday

Time Temperature Precipitation Wind Pressure Humidity
00:00 +14°C° 0 mm 2 mps 741 mmHg 84%
01:00 +13°C° 0 mm 2 mps 740 mmHg 85%
02:00 +13°C° 0 mm 2 mps 740 mmHg 84%
03:00 +12°C° 0 mm 3 mps 740 mmHg 83%
04:00 +12°C° 0 mm 3 mps 740 mmHg 83%
05:00 +12°C° 0 mm 3 mps 740 mmHg 80%
06:00 +11°C° 0 mm 3 mps 740 mmHg 78%
07:00 +12°C° 0 mm 2 mps 740 mmHg 76%
08:00 +12°C° 0 mm 3 mps 739 mmHg 70%
09:00 +14°C° 0 mm 3 mps 739 mmHg 64%
10:00 +16°C° 0 mm 3 mps 739 mmHg 59%
11:00 +16°C° 0 mm 3 mps 738 mmHg 58%
12:00 +17°C° 0 mm 3 mps 738 mmHg 57%
13:00 +18°C° 0 mm 3 mps 738 mmHg 56%
14:00 +17°C° 0 mm 3 mps 738 mmHg 60%
15:00 +16°C° 0 mm 3 mps 737 mmHg 64%
16:00 +14°C° 0 mm 4 mps 737 mmHg 67%
17:00 +13°C° 0 mm 3 mps 737 mmHg 69%
18:00 +13°C° 0 mm 3 mps 737 mmHg 72%
19:00 +13°C° 0 mm 2 mps 737 mmHg 74%
20:00 +13°C° 0 mm 2 mps 737 mmHg 77%
21:00 +13°C° 0 mm 1 mps 737 mmHg 80%
22:00 +12°C° 0 mm 1 mps 737 mmHg 83%
23:00 +12°C° 0 mm 1 mps 737 mmHg 85%

2 October, Friday

Time Temperature Precipitation Wind Pressure Humidity
00:00 +12°C° 0 mm 1 mps 737 mmHg 88%
01:00 +12°C° 0 mm 1 mps 737 mmHg 91%
02:00 +10°C° 0 mm 2 mps 737 mmHg 92%
03:00 +10°C° 0 mm 2 mps 737 mmHg 93%
04:00 +10°C° 0 mm 2 mps 737 mmHg 95%
05:00 +10°C° 0 mm 2 mps 737 mmHg 94%
06:00 +10°C° 0 mm 2 mps 737 mmHg 94%
07:00 +10°C° 0 mm 2 mps 737 mmHg 93%
08:00 +13°C° 0 mm 2 mps 737 mmHg 87%
09:00 +13°C° 0 mm 3 mps 737 mmHg 81%
10:00 +16°C° 0 mm 3 mps 737 mmHg 75%
11:00 +16°C° 0 mm 3 mps 736 mmHg 73%
12:00 +17°C° 0 mm 4 mps 736 mmHg 71%
13:00 +17°C° 0 mm 4 mps 736 mmHg 68%
14:00 +17°C° 0 mm 3 mps 736 mmHg 69%
15:00 +17°C° 0 mm 3 mps 736 mmHg 70%
16:00 +17°C° 0 mm 3 mps 736 mmHg 71%
17:00 +16°C° 0 mm 2 mps 736 mmHg 75%
18:00 +15°C° 0 mm 2 mps 736 mmHg 79%
19:00 +14°C° 0 mm 2 mps 736 mmHg 83%
20:00 +14°C° 0 mm 2 mps 736 mmHg 86%
21:00 +13°C° 0 mm 2 mps 736 mmHg 89%
22:00 +13°C° 0 mm 2 mps 736 mmHg 92%
23:00 +12°C° 0 mm 2 mps 736 mmHg 94%
Show more